Notices

What's New in latest Release from April 7th, 2021:

- Updated Glossary, including Speed of Maximum Gust, and Total Hourly Precipitation

- Updated national and regional climate services offices contacts and prices information

- Addition of station inventory lists for 1981-2010, 1971-2000, and 1961-1990 Normals.

If you haven't already, please take our survey and provide feedback about our website: https://eccc.sondage-survey.ca/f/LanguageSelection.aspx?s=442ca660-fcf1-47c0-95a9-59707d6fd709

Hourly Data Report for December 23, 2020

MUSKOKA
ONTARIO
Current Station Operator: NAVCAN

44°58'29.000" N
79°18'12.000" W
281.90 m
6115529
71532
YQA

Download Data

Hourly Data (December 2020)
Hourly Data Report for December 23, 2020
TIME
LST
Temp Definition
°C
Dew Point Definition
°C
Rel Hum Definition
%
Precip. Amount Definition
mm

Wind Dir Definition
10's deg

Wind Spd Definition
km/h
Visibility Definition
km
Stn Press Definition
kPa
Hmdx Definition


Wind Chill Definition


Weather Definition


00:00 -4.7 -8.8 73 LegendMM   0 16.1 98.78     LegendNANA
01:00 -4.8 -8.1 78 LegendMM LegendMM 4 16.1 98.79   -7 LegendNANA
02:00 -4.7 -7.8 79 LegendMM 11 5 16.1 98.80   -7 LegendNANA
03:00 -4.5 -8.5 74 LegendMM 13 11 16.1 98.81   -9 LegendNANA
04:00 -4.2 -8.2 74 LegendMM 14 9 16.1 98.85   -8 LegendNANA
05:00 -4.1 -7.1 80 LegendMM 13 11 4.0 98.76   -9 Snow
06:00 -3.6 -6.4 81 LegendMM 15 13 16.1 98.77   -8 LegendNANA
07:00 -3.2 -5.1 87 LegendMM 14 11 14.5 98.77   -7 Snow
08:00 -2.8 -4.8 86 LegendMM 13 11 16.1 98.75   -7 Snow
09:00 -2.2 -4.6 84 LegendMM 13 17 16.1 98.66   -8 LegendNANA
10:00 -1.0 -3.7 82 LegendMM 14 26 16.1 98.59   -7 LegendNANA
11:00 -0.2 -3.2 80 LegendMM 13 22 16.1 98.36   -6 LegendNANA
12:00 0.3 -3.1 78 LegendMM 16 24 16.1 98.29     LegendNANA
13:00 0.4 -3.2 77 LegendMM 13 21 16.1 98.14     LegendNANA
14:00 1.0 -2.6 77 LegendMM 14 21 16.1 98.07     LegendNANA
15:00 1.5 -2.1 77 LegendMM 13 18 16.1 97.90     LegendNANA
16:00 2.1 -1.9 75 LegendMM 14 32 16.1 97.74     LegendNANA
17:00 2.0 -2.4 73 LegendMM 14 30 16.1 97.68     LegendNANA
18:00 2.2 -2.3 72 LegendMM 14 30 16.1 97.61     LegendNANA
19:00 2.6 -2.4 70 LegendMM 15 30 16.1 97.57     LegendNANA
20:00 3.4 -2.6 65 LegendMM 14 26 16.1 97.50     LegendNANA
21:00 4.0 -2.6 62 LegendMM 14 24 16.1 97.43     Rain
22:00 3.3 -1.9 69 LegendMM 14 18 16.1 97.41     Rain
23:00 4.5 -1.5 65 LegendMM 17 26 16.1 97.37     LegendNANA

Notes on Data Quality.

Legend

  • E = Estimated
  • M = Missing
  • NA = Not Available*
  • [empty] = Indicates an unobserved value
Date modified: